Regional Weather Roundup
Issued by NWS Goodland, KS

Home | Current Version | Previous Version | Graphics & Text | Print | Product List | Glossary Off
Versions: 1 2 3 4 5 6 7 8 9 10 11 12 13 14 15 16 17 18 19 20 21 22 23 24 25 26 27 28 29 30 31 32 33 34 35 36 37 38 39 40 41 42 43 44 45 46 47 48 49 50

000
ASUS43 KGLD 181208
RWRGLD

GOODLAND FORECAST AREA HOURLY WEATHER ROUNDUP
NATIONAL WEATHER SERVICE GOODLAND KS
500 AM MST THU JAN 18 2018

...OFFICIAL OBSERVATIONS...

CITY           SKY/WX    TMP DP  RH WIND       PRES   REMARKS
GOODLAND KS    CLEAR     23  11  60 SW7       30.10F
HILL CITY KS   CLOUDY    16  11  80 W8        30.13F
IMPERIAL NEB   CLEAR     23  17  78 W8        30.07F
MCCOOK NEB     CLEAR     15  12  88 W6        30.10F
AKRON CO       MOCLDY    27  13  55 SW14      30.08F WCI  16
BURLINGTON CO  CLEAR     24  13  62 W12       30.12F WCI  13
LIMON CO       CLEAR     13   8  81 N6        30.13F
$$

...UNOFFICIAL OBSERVATIONS...

CITY           SKY/WX    TMP DP  RH WIND       PRES   REMARKS
COLBY KS       CLEAR     16  14  93 SW7       30.12F
LENORA KS        N/A     23  32 100 W6          N/A
NORTON KS      CLEAR     14   9  79 SW10      30.09  WCI   1
SHARON SPRINGS   N/A     21   9  58 CALM        N/A
TRENTON NEB      N/A     19  32 100 W5          N/A
KIT CARSON CO    N/A     15   1  53 CALM        N/A
YUMA CO        FAIR      25  14  63 W13       30.09F WCI  13
$$



USA.gov is the U.S. government's official web portal to all federal, state and local government web resources and services.